| time (UTC) | temp C | wind direction | speed KPH | gust KPH | rain 1hr cm | rain 24hr cm | rain mn cm | humidity % | barometer mb |
| 20260503195923 | 21 | 230 | 1.6 | 8.0 | 0.00 | 0.00 | 0.00 | 41 | 1016.1 |
| 20260503194419 | 20 | 45 | 0.0 | 11.3 | 0.00 | 0.00 | 0.00 | 44 | 1016.3 |
| 20260503192933 | 21 | 195 | 0.0 | 4.8 | 0.00 | 0.00 | 0.00 | 45 | 1016.6 |
| 20260503191418 | 21 | 9 | 0.0 | 8.0 | 0.00 | 0.00 | 0.00 | 46 | 1017.0 |
| 20260503185920 | 21 | 305 | 0.0 | 3.2 | 0.00 | 0.00 | 0.00 | 44 | 1017.2 |
| 20260503184445 | 20 | 15 | 1.6 | 11.3 | 0.00 | 0.00 | 0.00 | 39 | 1017.2 |
| 20260503182938 | 20 | 7 | 0.0 | 8.0 | 0.00 | 0.00 | 0.00 | 41 | 1017.6 |
| 20260503181420 | 20 | 97 | 0.0 | 8.0 | 0.00 | 0.00 | 0.00 | 45 | 1017.6 |
| 20260503175931 | 20 | 189 | 1.6 | 9.7 | 0.00 | 0.00 | 0.00 | 48 | 1017.6 |
| 20260503174423 | 20 | 249 | 3.2 | 9.7 | 0.00 | 0.00 | 0.00 | 44 | 1017.6 |
| 20260503172936 | 19 | 34 | 3.2 | 6.4 | 0.00 | 0.00 | 0.00 | 44 | 1017.8 |
| 20260503171417 | 20 | 211 | 4.8 | 12.9 | 0.00 | 0.00 | 0.00 | 45 | 1017.9 |
| 20260503131419 | 10 | 64 | 0.0 | 0.0 | 0.00 | 0.36 | 0.00 | 90 | 1018.5 |
| 20260503081449 | 7 | 64 | 0.0 | 0.0 | 0.00 | 1.04 | 0.00 | 94 | 1015.3 |
| 20260503072928 | 8 | 64 | 0.0 | 0.0 | 0.00 | 1.09 | 0.00 | 94 | 1015.1 |
| 20260503071445 | 8 | 64 | 0.0 | 0.0 | 0.00 | 1.09 | 0.00 | 94 | 1014.9 |
| 20260503054426 | 10 | 64 | 0.0 | 0.0 | 0.00 | 1.09 | 0.00 | 93 | 1014.6 |
| 20260503052945 | 10 | 64 | 0.0 | 0.0 | 0.00 | 1.09 | 0.00 | 93 | 1014.5 |
| 20260503051435 | 10 | 64 | 0.0 | 0.0 | 0.00 | 1.09 | 0.00 | 93 | 1014.5 |
| 20260503045928 | 10 | 64 | 0.0 | 0.0 | 0.00 | 1.09 | 0.00 | 93 | 1014.3 |
| 20260503044416 | 11 | 64 | 0.0 | 0.0 | 0.00 | 1.09 | 0.00 | 94 | 1014.2 |
| 20260503042932 | 11 | 64 | 0.0 | 0.0 | 0.00 | 1.09 | 0.00 | 93 | 1014.4 |
| 20260503041446 | 11 | 64 | 0.0 | 0.0 | 0.00 | 1.09 | 0.00 | 93 | 1014.2 |
| 20260503035933 | 11 | 64 | 0.0 | 0.0 | 0.00 | 1.09 | 1.09 | 93 | 1014.2 |
| 20260503034446 | 11 | 64 | 0.0 | 0.0 | 0.00 | 1.09 | 1.09 | 93 | 1014.1 |
| 20260503032946 | 11 | 64 | 0.0 | 0.0 | 0.00 | 1.09 | 1.09 | 93 | 1014.0 |
| 20260503031428 | 11 | 64 | 0.0 | 0.0 | 0.00 | 1.09 | 1.09 | 93 | 1014.0 |
| 20260503025923 | 11 | 64 | 0.0 | 0.0 | 0.00 | 1.09 | 1.09 | 93 | 1013.8 |
| 20260503024429 | 11 | 64 | 0.0 | 0.0 | 0.00 | 1.09 | 1.09 | 93 | 1013.8 |
| 20260503022924 | 11 | 64 | 0.0 | 0.0 | 0.00 | 1.09 | 1.09 | 93 | 1013.3 |
| 20260503021424 | 11 | 64 | 0.0 | 0.0 | 0.00 | 1.09 | 1.09 | 93 | 1012.8 |
| 20260503015937 | 11 | 64 | 0.0 | 0.0 | 0.00 | 1.09 | 1.09 | 93 | 1012.9 |
| 20260503014431 | 11 | 64 | 0.0 | 0.0 | 0.00 | 1.09 | 1.09 | 93 | 1012.5 |
| 20260503012946 | 11 | 64 | 0.0 | 0.0 | 0.00 | 1.09 | 1.09 | 92 | 1012.4 |
| 20260503011423 | 11 | 64 | 0.0 | 0.0 | 0.00 | 1.09 | 1.09 | 92 | 1012.2 |
| 20260503005931 | 11 | 64 | 0.0 | 0.0 | 0.00 | 1.09 | 1.09 | 92 | 1012.0 |
| 20260503004445 | 11 | 64 | 0.0 | 0.0 | 0.00 | 1.09 | 1.09 | 91 | 1011.7 |
| 20260503002921 | 12 | 64 | 0.0 | 0.0 | 0.00 | 1.09 | 1.09 | 90 | 1011.4 |
| 20260503001423 | 12 | 64 | 0.0 | 0.0 | 0.00 | 1.09 | 1.09 | 89 | 1011.4 |
| 20260503000004 | 13 | 64 | 0.0 | 0.0 | 0.00 | 1.09 | 1.09 | 88 | 1011.2 |
| 20260502234421 | 13 | 64 | 0.0 | 0.0 | 0.00 | 1.09 | 1.09 | 85 | 1010.9 |
| 20260502232941 | 13 | 64 | 0.0 | 0.0 | 0.00 | 1.09 | 1.09 | 83 | 1010.7 |
| 20260502231426 | 14 | 64 | 0.0 | 0.0 | 0.00 | 1.09 | 1.09 | 81 | 1010.6 |
| 20260502225933 | 15 | 64 | 0.0 | 0.0 | 0.00 | 1.09 | 1.09 | 78 | 1010.6 |
| 20260502224447 | 15 | 64 | 0.0 | 0.0 | 0.00 | 1.09 | 1.09 | 78 | 1010.7 |
| 20260502222933 | 15 | 64 | 0.0 | 0.0 | 0.00 | 1.09 | 1.09 | 80 | 1010.7 |
| 20260502221422 | 15 | 64 | 0.0 | 0.0 | 0.00 | 1.09 | 1.09 | 78 | 1010.6 |
| 20260502215933 | 15 | 64 | 0.0 | 0.0 | 0.00 | 1.09 | 1.09 | 79 | 1010.8 |
| 20260502214432 | 14 | 64 | 0.0 | 0.0 | 0.00 | 1.09 | 1.09 | 78 | 1010.7 |
| 20260502212923 | 14 | 64 | 0.0 | 0.0 | 0.00 | 1.09 | 1.09 | 82 | 1010.4 |
| 20260502211508 | 13 | 64 | 0.0 | 0.0 | 0.00 | 1.09 | 1.09 | 81 | 1010.3 |
| 20260502205935 | 14 | 64 | 0.0 | 0.0 | 0.00 | 1.09 | 1.09 | 80 | 1010.4 |
| 20260502204420 | 14 | 64 | 1.6 | 4.8 | 0.00 | 1.09 | 1.09 | 79 | 1010.6 |
| 20260502202954 | 14 | 64 | 0.0 | 0.0 | 0.00 | 1.09 | 1.09 | 81 | 1010.6 |
| 20260502201432 | 13 | 64 | 1.6 | 6.4 | 0.00 | 1.09 | 1.09 | 81 | 1010.7 |